Content
SEND FEEDBACK

Daily
Averages
Monthly
Summary
France

FLORANGE, FRANCE


Home > Europe > France
Elevation: 637 feet     Latitude: 49 30N     Longitude: 006 17E

WEATHER
 
SELECT A DAY
Number of Records: 304,252;   Date Range: 7/1/96 - 8/27/14
 
SHARE

PRINT THIS DATA

[ ← Previous Day ]
WEATHER ALMANAC - JANUARY 31, 2013
[ Next Day → ]
[ °C ]   °F
Weather ElementAverageHighLow
Temperature42.6 °F45 °F (7:00 pm)39 °F (10:00 am)
Dewpoint37.8 °F41 °F (3:20 pm)35.6 °F (12:50 am)
Humidity82.4 %93 % (9:50 am)71 % (10:00 pm)
Barometer30.05 in30.19 in (4:00 am)29.95 in (2:20 pm)
Wind Speed17.5 mph25.3 mph (3:20 pm)
Wind Gust39.1 mph (3:20 pm)
Weather ElementAverage
Visibility6.9 mi
Wind DirectionWSW (247.1 °)

Weather ElementTotal
Precipitation---
Heating Degree Days23 (Base 65)
Averaged from 55 records on January 31, 2013
WEATHER CONDITIONS BREAKOUT
WIND DIRECTION BREAKOUT
WEATHER BY HOUR - JANUARY 31, 2013
[ °C ]   °F
Local TimeTemperatureDewpointHumidityBarometerVisibilityWind DirectionWind SpeedGust SpeedPrecipitationEventsConditions
12:50 AM41.0 °F35.6 °F81 %30.09 inWSW (250°)15.0 mphClear
1:00 AM42.0 °F36.0 °F72 %30.15 in6.0 miWSW (250°)13.4 mph
1:20 AM41.0 °F35.6 °F81 %30.12 in6.2 miWest (260°)19.6 mph
1:50 AM42.8 °F37.4 °F81 %30.12 in6.2 miWest (260°)15.0 mphPartly Cloudy
2:20 AM42.8 °F37.4 °F81 %30.12 in6.2 miWest (260°)18.4 mph
2:50 AM42.8 °F37.4 °F81 %30.15 in6.2 miWest (270°)16.1 mph
3:20 AM42.8 °F35.6 °F76 %30.12 in6.2 miWest (260°)13.8 mph
3:50 AM42.8 °F35.6 °F76 %30.15 in6.2 miWest (260°)17.3 mphMostly Cloudy
4:00 AM42.0 °F36.0 °F72 %30.19 in7.0 miWest (260°)15.7 mphMostly Cloudy
4:20 AM41.0 °F35.6 °F81 %30.15 in6.2 miWest (260°)15.0 mphMostly Cloudy
4:50 AM41.0 °F35.6 °F81 %30.12 in6.2 miWest (260°)16.1 mphMostly Cloudy
5:20 AM41.0 °F35.6 °F81 %30.12 in6.2 miWest (270°)15.0 mphMostly Cloudy
5:50 AM41.0 °F35.6 °F81 %30.12 in6.2 miWest (270°)15.0 mphMostly Cloudy
6:20 AM41.0 °F35.6 °F81 %30.12 in6.2 miWSW (250°)12.7 mphMostly Cloudy
6:50 AM41.0 °F37.4 °F87 %30.12 in6.2 miSW (230°)11.5 mphMostly Cloudy
7:00 AM41.0 °F36.0 °F78 %30.17 in7.0 miWSW (240°)13.4 mphMostly Cloudy
7:20 AM41.0 °F37.4 °F87 %30.12 in6.2 miSSW (210°)10.4 mphMostly Cloudy
7:50 AM39.2 °F35.6 °F87 %30.09 in6.2 miSW (220°)11.5 mphMostly Cloudy
8:20 AM39.2 °F35.6 °F87 %30.12 in6.2 miSW (220°)12.7 mphMostly Cloudy
8:50 AM39.2 °F35.6 °F87 %30.12 in6.2 miSW (220°)11.5 mphMostly Cloudy
9:20 AM39.2 °F35.6 °F87 %30.09 in6.2 miSW (220°)12.7 mphMostly Cloudy
9:50 AM39.2 °F37.4 °F93 %30.09 in6.2 miSW (230°)13.8 mphMostly Cloudy
10:00 AM39.0 °F37.0 °F89 %30.15 in6.0 miSW (220°)13.4 mphMostly Cloudy
10:20 AM41.0 °F39.2 °F93 %30.09 in6.2 miSW (230°)15.0 mphMostly Cloudy
10:50 AM41.0 °F37.4 °F87 %30.06 in6.2 miSW (230°)18.4 mph29.9 mphMostly Cloudy
11:20 AM42.8 °F37.4 °F81 %30.06 in6.2 miSW (230°)17.3 mphMostly Cloudy
11:50 AM42.8 °F37.4 °F81 %30.06 in6.2 miSW (230°)21.9 mphMostly Cloudy
12:20 PM42.8 °F37.4 °F81 %30.04 in6.2 miWSW (240°)19.6 mph31.1 mphMostly Cloudy
12:50 PM42.8 °F37.4 °F81 %30.04 in6.2 miWSW (240°)20.7 mph38.0 mphMostly Cloudy
1:00 PM42.0 °F37.0 °F76 %30.08 in19.0 miSW (230°)17.9 mphMostly Cloudy
1:20 PM42.8 °F37.4 °F81 %30.01 in6.2 miWSW (240°)20.7 mph32.2 mphMostly Cloudy
1:50 PM42.8 °F37.4 °F81 %29.98 in6.2 miSW (230°)21.9 mph34.5 mphMostly Cloudy
2:20 PM42.8 °F39.2 °F87 %29.95 in6.2 miWSW (240°)24.2 mph36.8 mphRainLight Rain
2:50 PM42.8 °F39.2 °F87 %29.95 in6.2 miWSW (240°)23.0 mph35.7 mphMostly Cloudy
3:20 PM42.8 °F41.0 °F93 %29.95 in6.2 miWSW (240°)25.3 mph39.1 mphRainLight Rain
3:50 PM44.6 °F41.0 °F87 %29.95 in6.2 miWSW (240°)21.9 mphRainLight Rain
4:00 PM44.0 °F41.0 °F85 %29.98 in12.0 miWSW (250°)20.1 mphRainLight Rain
4:20 PM44.6 °F41.0 °F87 %29.95 inWSW (250°)20.7 mph
4:50 PM44.6 °F41.0 °F87 %29.95 in6.2 miWSW (250°)23.0 mph34.5 mphRainLight Rain Showers
5:20 PM44.6 °F41.0 °F87 %29.95 in6.2 miWSW (250°)24.2 mph35.7 mphMostly Cloudy
5:50 PM44.6 °F41.0 °F87 %29.95 in6.2 miWSW (250°)19.6 mphMostly Cloudy
6:20 PM44.6 °F41.0 °F87 %29.98 in6.2 miWSW (250°)20.7 mphMostly Cloudy
6:50 PM44.6 °F41.0 °F87 %29.98 in6.2 miWest (260°)18.4 mphMostly Cloudy
7:00 PM45.0 °F40.0 °F78 %30.01 in16.0 miWest (260°)20.1 mphPartly Cloudy
7:20 PM44.6 °F39.2 °F81 %29.98 in6.2 miWest (260°)17.3 mphMostly Cloudy
7:50 PM44.6 °F39.2 °F81 %29.98 in6.2 miWest (260°)18.4 mphMostly Cloudy
8:20 PM44.6 °F39.2 °F81 %29.98 in6.2 miWest (260°)19.6 mph32.2 mphMostly Cloudy
8:50 PM44.6 °F39.2 °F81 %29.98 in6.2 miWest (260°)18.4 mphMostly Cloudy
9:20 PM44.6 °F37.4 °F76 %30.01 in6.2 miWest (260°)19.6 mphMostly Cloudy
9:50 PM44.6 °F37.4 °F76 %30.01 in6.2 miWest (260°)17.3 mphMostly Cloudy
10:00 PM44.0 °F38.0 °F71 %30.04 in16.0 miWest (260°)20.1 mphMostly Cloudy
10:20 PM44.6 °F39.2 °F81 %30.01 in6.2 miWest (260°)17.3 mphMostly Cloudy
10:50 PM44.6 °F37.4 °F76 %30.01 in6.2 miWest (260°)18.4 mph33.4 mphMostly Cloudy
11:20 PM44.6 °F37.4 °F76 %30.01 in6.2 miWest (260°)17.3 mphMostly Cloudy
11:50 PM44.6 °F39.2 °F81 %30.01 in6.2 miWest (260°)16.1 mphMostly Cloudy
Hourly data recorded from ELLX, located miles away from Florange, France







STORIES FROM OUR PARTNERS